Location: Hesters Ferry
(33.9426°N, 82.5501°W)
Time: 19:56:32
(UTC+00:00)

ARIANE 6 FM1 Upper Stage - Pass Details

Date: 19 June 2025
Orbit: 528 x 612 km, 62.0° (Epoch: 20 July)

Event Time Altitude Azimuth Distance (km) Brightness Sun altitude
Rises 02:03:07 0° 321° (NW) 2,740 8.0 -14.2°
Reaches altitude 10° 02:05:22 10° 315° (NW) 1,855 6.7 -14.6°
Maximum altitude 02:09:23 46° 242° (WSW) 770 3.5 -15.2°
Enters shadow 02:12:07 19° 176° (S) 1,390 4.2 -15.6°
